Location: Unspecified
(0.0000°N, 0.0000°E)
Time: 07:40:29
(UTC+00:00)

STARLINK-1262 - Visible Passes

Search period start: 08 December 2025 00:00
Search period end: 18 December 2025 00:00
Orbit: 546 x 548 km, 53.1° (Epoch: 07 December)

Date Brightness Start Highest point End Pass type
(mag) Time Alt. Az. Time Alt. Az. Time Alt. Az.
12 Dec 4.0 19:22:51 10° NNW 19:25:55 45° N 19:25:55 45° N visible
13 Dec 3.6 19:16:25 10° NW 19:20:32 83° WSW 19:24:39 10° SSE visible
14 Dec 4.5 19:10:10 10° NW 19:14:09 50° SW 19:18:10 10° SSE visible
15 Dec 5.6 19:04:06 10° WNW 19:07:47 32° SW 19:11:29 10° S visible
16 Dec 6.9 05:22:47 10° SSE 05:25:20 16° SE 05:27:52 10° E visible
16 Dec 6.5 18:58:17 10° WNW 19:01:24 21° SW 19:04:32 10° S visible
17 Dec 6.4 05:15:36 10° S 05:18:58 24° SE 05:22:19 10° ENE visible
17 Dec 7.0 18:52:55 10° W 18:55:02 14° SW 18:57:09 10° SSW visible
